Flag for United Arab Emirates

Past Weather in Abu Dhabi, Abu Dhabi, United Arab Emirates — Yesterday and Last 2 Weeks

Now
100 °F

Sunny.


Feels Like: 106 °F
Forecast: 100 / 84 °F
Wind: 10 mph from North

Location: Abu Dhabi Bateen Airport
Current Time: Sep 27, 2020 at 3:43:09 pm
Latest Report: Sep 27, 2020 at 3:00 pm
Visibility: 10 mi
Pressure29.65 "Hg
Humidity: 35%
Dew Point: 68 °F
Location of Abu DhabiLocation

Past Weather in Abu Dhabi — Graph

°F

Abu Dhabi Temperature Yesterday

Maximum temperature yesterday: 102 °F (at 1:00 pm)
Minimum temperature yesterday: 82 °F (at 5:00 am)
Average temperature yesterday: 91 °F

High & Low Weather Summary for the Past Weeks

 TemperatureHumidityPressure
High109 °F (Sep 13, 1:00 pm)100% (Sep 23, 6:16 am)29.77 "Hg (Sep 23, 6:16 am)
Low81 °F (Sep 18, 7:12 am)9% (Sep 14, 3:00 pm)29.56 "Hg (Sep 15, 4:00 pm)
Average92 °F59%29.64 "Hg
* Reported Sep 12 2:00 pm — Sep 27 2:00 pm, Abu Dhabi. Weather by CustomWeather, © 2020

Note: Actual official high and low records may vary slightly from our data, if they occured in-between our weather recording intervals... More about our weather records

Abu Dhabi Weather History for the Previous 24 Hours

Scroll right to see more
 ConditionsComfort  
Time TempWeatherWind HumidityBarometerVisibility
2:00 pm
Sun, Sep 27
102 °FPassing clouds.8 mph27%29.65 "HgN/A
1:00 pm100 °FSunny.8 mph29%29.68 "Hg10 mi
12:00 pm102 °FSunny.3 mph23%29.71 "Hg10 mi
11:00 am95 °FPassing clouds.6 mph36%29.71 "HgN/A
10:00 am91 °FClear.6 mph59%29.74 "Hg5 mi
9:00 am91 °FSunny.6 mph56%29.71 "Hg10 mi
8:00 am86 °FClear.3 mph79%29.71 "Hg4 mi
7:00 am82 °FClear.No wind89%29.68 "Hg4 mi
6:00 am84 °FClear.3 mph89%29.68 "Hg4 mi
5:00 am84 °FClear.5 mph89%29.65 "Hg5 mi
4:00 am86 °FClear.3 mph84%29.65 "Hg10 mi
3:00 am84 °FClear.No wind84%29.65 "Hg10 mi
2:00 am86 °FClear.No wind79%29.65 "Hg10 mi
1:00 am86 °FClear.3 mph79%29.65 "Hg10 mi
12:00 am88 °FClear.2 mph79%29.65 "Hg10 mi
11:00 pm
Sat, Sep 26
90 °FPassing clouds.6 mph75%29.65 "HgN/A
10:00 pm90 °FClear.5 mph75%29.65 "Hg10 mi
9:00 pm90 °FClear.10 mph75%29.65 "Hg10 mi
8:00 pm90 °FClear.8 mph79%29.65 "Hg10 mi
7:00 pm91 °FClear.10 mph71%29.62 "Hg10 mi
6:00 pm95 °FSunny.10 mph53%29.59 "Hg10 mi
5:00 pm95 °FSunny.12 mph56%29.59 "Hg10 mi
4:00 pm97 °FSunny.12 mph53%29.59 "Hg10 mi
3:00 pm99 °FPassing clouds.12 mph50%29.59 "HgN/A
Weather by CustomWeather, © 2020

See weather overview